Satellite: RESURS
Catalog number: 25394
Epoch time: 06270.79281081
Element set: 0479
Inclination: 098.4820 deg
RA of node: 330.1663 deg
Eccentricity: 0.0000628
Arg of perigee: 227.5176 deg
Mean anomaly: 132.5950 deg
Mean motion: 14.24112593 rev/day
Decay rate: 1.0e-08 rev/day^2
Epoch rev: 42700
Checksum: 275
Satellite: FENGYUN1
Catalog number: 25730
Epoch time: 06271.59286237
Element set: 834
Inclination: 098.6350 deg
RA of node: 260.2695 deg
Eccentricity: 0.0013872
Arg of perigee: 203.9728 deg
Mean anomaly: 156.0791 deg
Mean motion: 14.11817309 rev/day
Decay rate: 2.60e-06 rev/day^2
Epoch rev: 38060
Checksum: 302
Satellite: OKEAN-0
Catalog number: 25860
Epoch time: 06270.75871373
Element set: 0863
Inclination: 097.7337 deg
RA of node: 280.3137 deg
Eccentricity: 0.0001589
Arg of perigee: 097.3360 deg
Mean anomaly: 262.8034 deg
Mean motion: 14.73391292 rev/day
Decay rate: 5.8e-07 rev/day^2
Epoch rev: 38685
Checksum: 325
Satellite: NOAA-16
Catalog number: 26536
Epoch time: 06270.86738485
Element set: 0062
Inclination: 099.0802 deg
RA of node: 238.7523 deg
Eccentricity: 0.0010137
Arg of perigee: 187.8862 deg
Mean anomaly: 172.2145 deg
Mean motion: 14.12371096 rev/day
Decay rate: -1.46e-06 rev/day^2
Epoch rev: 31007
Checksum: 300
Satellite: NOAA-17
Catalog number: 27453
Epoch time: 06270.70164107
Element set: 0082
Inclination: 098.6128 deg
RA of node: 340.8818 deg
Eccentricity: 0.0012476
Arg of perigee: 135.2699 deg
Mean anomaly: 224.9486 deg
Mean motion: 14.23812477 rev/day
Decay rate: 3.7e-07 rev/day^2
Epoch rev: 22136
Checksum: 310
Satellite: NOAA-18
Catalog number: 28654
Epoch time: 06270.67534438
Element set: 0651
Inclination: 098.7951 deg
RA of node: 211.7889 deg
Eccentricity: 0.0013800
Arg of perigee: 294.1978 deg
Mean anomaly: 065.7737 deg
Mean motion: 14.10995768 rev/day
Decay rate: 3.50e-06 rev/day^2
Epoch rev: 06983
Checksum: 357
/EX
SB KEPS @ AMSAT $ORB06271.M
Orbital Elements 06271.MISC
HR AMSAT ORBITAL ELEMENTS FOR MANNED AND MISCELLANEOUS SATELLITES
FROM WA5QGD FORT WORTH,TX September 28, 2006
Send SUBSCRIBE KEPS/UNSUBSCRIBE KEPS to majordomo at amsat.org only
BID: ORB06271.M
TO ALL RADIO AMATEURS BT
Satellite: HUBBLE
Catalog number: 20580
Epoch time: 06270.95514104
Element set: 0725
Inclination: 028.4671 deg
RA of node: 099.9378 deg
Eccentricity: 0.0003860
Arg of perigee: 192.5608 deg
Mean anomaly: 167.4884 deg
Mean motion: 15.00099448 rev/day
Decay rate: 4.07e-06 rev/day^2
Epoch rev: 70054
Checksum: 308
Satellite: UARS
Catalog number: 21701
Epoch time: 06270.79291747
Element set: 879
Inclination: 056.9768 deg
RA of node: 009.8692 deg
Eccentricity: 0.0105404
Arg of perigee: 049.0579 deg
Mean anomaly: 311.9540 deg
Mean motion: 15.44739508 rev/day
Decay rate: 4.862e-05 rev/day^2
Epoch rev: 82515
Checksum: 337
Satellite: PO-34
Catalog number: 25520
Epoch time: 06270.86241590
Element set: 0593
Inclination: 028.4594 deg
RA of node: 064.1995 deg
Eccentricity: 0.0005068
Arg of perigee: 276.0552 deg
Mean anomaly: 083.9463 deg
Mean motion: 15.16796967 rev/day
Decay rate: 4.54e-06 rev/day^2
Epoch rev: 43765
Checksum: 338
Satellite: ISS
Catalog number: 25544
Epoch time: 06271.92812500
Element set: 762
Inclination: 051.6381 deg
RA of node: 013.0552 deg
Eccentricity: 0.0012769
Arg of perigee: 037.3578 deg
Mean anomaly: 132.3767 deg
Mean motion: 15.76249096 rev/day
Decay rate: 1.3739e-04 rev/day^2
Epoch rev: 44952
Checksum: 308
Satellite: OO-38
Catalog number: 26063
Epoch time: 06271.70844370
Element set: 728
Inclination: 100.1944 deg
RA of node: 221.4091 deg
Eccentricity: 0.0036840
Arg of perigee: 175.2843 deg
Mean anomaly: 184.8687 deg
Mean motion: 14.35778047 rev/day
Decay rate: -1.5e-07 rev/day^2
Epoch rev: 34952
Checksum: 312
Satellite: NO-45
Catalog number: 26932
Epoch time: 06271.84143702
Element set: 420
Inclination: 067.0549 deg
RA of node: 100.4097 deg
Eccentricity: 0.0006296
Arg of perigee: 235.1960 deg
Mean anomaly: 124.8549 deg
Mean motion: 14.29535813 rev/day
Decay rate: -4.1e-07 rev/day^2
Epoch rev: 26078
Checksum: 297
Satellite: UWE-1
Catalog number: 28892
Epoch time: 06270.90394073
Element set: 0562
Inclination: 098.1494 deg
RA of node: 167.3915 deg
Eccentricity: 0.0016640
Arg of perigee: 208.6734 deg
Mean anomaly: 151.3553 deg
Mean motion: 14.59399170 rev/day
Decay rate: 1.45e-06 rev/day^2
Epoch rev: 04895
Checksum: 324
Satellite: CO-58
Catalog number: 28895
Epoch time: 06270.75435817
Element set: 546
Inclination: 098.1508 deg
RA of node: 167.3608 deg
Eccentricity: 0.0017290
Arg of perigee: 209.3508 deg
Mean anomaly: 150.6716 deg
Mean motion: 14.59449400 rev/day
Decay rate: 2.05e-06 rev/day^2
Epoch rev: 4881
Checksum: 327
Satellite: NCUBE2
Catalog number: 28897
Epoch time: 06270.24083949
Element set: 0125
Inclination: 098.1489 deg
RA of node: 166.8329 deg
Eccentricity: 0.0016732
Arg of perigee: 213.5580 deg
Mean anomaly: 146.4575 deg
Mean motion: 14.59605518 rev/day
Decay rate: 1.27e-06 rev/day^2
Epoch rev: 04101
Checksum: 316
/EX
More information about the Keps
mailing list